Hettinger, ND

1:17 AM MST on December 09, 2016 (GMT -0700)
Hettinger Municipal

Weather History for KHEI - March, 2012

Change the Weather History Date:

Monday, March 19, 2012

  Actual Average Record
Temperature  
Mean Temperature 49 °F -  
Max Temperature 68 °F 42 °F 70 °F (1999)
Min Temperature 30 °F 19 °F 1 °F (2013)
Degree Days  
Heating Degree Days 16 34  
Month to date heating degree days 451 714  
Since 1 July heating degree days 6096 7030  
Cooling Degree Days 0 0  
Month to date cooling degree days 0 0  
Year to date cooling degree days 0 0  
Growing Degree Days 1 (Base 50)    
Moisture  
Dew Point 24 °F    
Average Humidity 41    
Maximum Humidity 69    
Minimum Humidity 11    
Precipitation  
Precipitation 0.00 in 0.03 in 0.10 in (2003)
Month to date precipitation 0.09 0.38  
Year to date precipitation 0.70 1.11  
Sea Level Pressure  
Sea Level Pressure 29.37 in    
Wind  
Wind Speed 19 mph (SW)    
Max Wind Speed 32 mph    
Max Gust Speed 39 mph    
Visibility 10 miles    
Events      
T = Trace of Precipitation, MM = Missing Value Source: NWS Daily Summary

Daily Weather History Graph

Daily Weather History Graph

Search for Another Location

Airport or City:

Trip Planner

Search our weather history database for the weather conditions in past years. The results will help you decide how hot, cold, wet, or windy it might be!

Date:

Astronomy

Mar. 19, 2012 Rise Set
Actual Time 6:54 AM MDT 7:02 PM MDT
Civil Twilight 6:24 AM MDT 7:32 PM MDT
Nautical Twilight 5:49 AM MDT 8:07 PM MDT
Astronomical Twilight 5:13 AM MDT 8:43 PM MDT
Moon 5:15 AM MDT (3/19) 4:26 PM MDT (3/19)
Length of Visible Light 13h 07m
Length of Day
12h 08m
Waning Crescent, 8% of the Moon is Illuminated
Mar 19
Waning Crescent
Mar 22
New
Mar 30
First Quarter
Apr 6
Full
Apr 13
Last Quarter

Hourly Weather History & Observations

Time (MDT) Temp. Windchill Dew Point Humidity Pressure Visibility Wind Dir Wind Speed Gust Speed Precip Events Conditions
12:53 AM 68.0 °F - 37.9 °F 33% 29.12 in 10.0 mi SSE 24.2 mph 32.2 mph N/A   Overcast
1:53 AM 64.0 °F - 45.0 °F 50% 29.14 in 10.0 mi SSE 15.0 mph 23.0 mph N/A   Overcast
2:53 AM 61.0 °F - 48.0 °F 62% 29.15 in 10.0 mi South 15.0 mph 20.7 mph N/A   Overcast
4:53 AM 48.9 °F - 35.1 °F 59% 29.21 in 10.0 mi SW 13.8 mph - N/A   Clear
5:53 AM 46.9 °F - 28.9 °F 50% 29.24 in 10.0 mi SSW 11.5 mph - N/A   Clear
6:53 AM 45.0 °F 38.2 °F 28.9 °F 53% 29.28 in 10.0 mi South 15.0 mph - N/A   Clear
7:53 AM 48.0 °F - 27.0 °F 44% 29.31 in 10.0 mi SSW 17.3 mph - N/A   Clear
8:53 AM 48.0 °F - 23.0 °F 37% 29.34 in 10.0 mi SSW 21.9 mph 28.8 mph N/A   Clear
9:53 AM 48.9 °F - 19.0 °F 31% 29.34 in 10.0 mi South 21.9 mph 29.9 mph N/A   Clear
10:53 AM 52.0 °F - 16.0 °F 24% 29.32 in 10.0 mi SSW 26.5 mph 32.2 mph N/A   Clear
11:53 AM 55.9 °F - 15.1 °F 20% 29.31 in 10.0 mi South 19.6 mph 31.1 mph N/A   Clear
12:53 PM 60.1 °F - 10.9 °F 14% 29.31 in 10.0 mi SSW 19.6 mph 28.8 mph N/A   Clear
1:53 PM 61.0 °F - 9.0 °F 13% 29.31 in 10.0 mi SSW 19.6 mph 33.4 mph N/A   Clear
2:53 PM 62.1 °F - 10.0 °F 13% 29.30 in 10.0 mi SSW 24.2 mph 35.7 mph N/A   Clear
3:53 PM 62.1 °F - 7.0 °F 11% 29.33 in 10.0 mi SSW 24.2 mph 34.5 mph N/A   Clear
4:53 PM 61.0 °F - 9.0 °F 13% 29.36 in 10.0 mi SW 20.7 mph 39.1 mph N/A   Clear
5:11 PM 55.4 °F - 28.4 °F 36% 29.39 in 10.0 mi West 25.3 mph 33.4 mph N/A   Clear
5:53 PM 51.1 °F - 27.0 °F 39% 29.44 in 10.0 mi West 24.2 mph 38.0 mph N/A   Clear
6:53 PM 45.0 °F 36.2 °F 27.0 °F 49% 29.50 in 10.0 mi West 24.2 mph 33.4 mph N/A   Clear
7:53 PM 39.9 °F 30.2 °F 26.1 °F 58% 29.55 in 10.0 mi West 20.7 mph 29.9 mph N/A   Clear
8:53 PM 37.9 °F 26.6 °F 25.0 °F 60% 29.59 in 10.0 mi WNW 25.3 mph 34.5 mph N/A   Clear
9:53 PM 36.0 °F 24.2 °F 25.0 °F 64% 29.62 in 10.0 mi West 24.2 mph 32.2 mph N/A   Clear
10:53 PM 34.0 °F 23.8 °F 25.0 °F 70% 29.68 in 10.0 mi West 16.1 mph 24.2 mph N/A   Clear
11:53 PM 33.1 °F 23.9 °F 25.0 °F 72% 29.71 in 10.0 mi WNW 12.7 mph - N/A   Clear